Pamplona, Spain

2:14 AM CEST on April 21, 2018 (GMT +0200)
Pamplona

Weather History for LEPP - June, 2013

Change the Weather History Date:

Wednesday, June 26, 2013

  Actual Average Record
Temperature  
Mean Temperature 63 °F -  
Max Temperature 71 °F 78 °F 98 °F (2011)
Min Temperature 55 °F 57 °F 51 °F (2007)
Degree Days  
Heating Degree Days 2    
Growing Degree Days 13 (Base 50)    
Moisture  
Dew Point 50 °F    
Average Humidity 62    
Maximum Humidity 82    
Minimum Humidity 46    
Precipitation  
Precipitation 0.00 in - - ()
Sea Level Pressure  
Sea Level Pressure 30.29 in    
Wind  
Wind Speed 11 mph ()    
Max Wind Speed 18 mph    
Max Gust Speed 28 mph    
Visibility 6.2 miles    
Events      
Averages and records for this station are not official NWS values.
T = Trace of Precipitation, MM = Missing Value Source: Averaged Metar Reports

Daily Weather History Graph

Daily Weather History Graph

Search for Another Location

Airport or City:

Astronomy

Jun. 26, 2013 Rise Set
Actual Time 6:29 AM CEST 9:48 PM CEST
Civil Twilight 5:54 AM CEST 10:24 PM CEST
Nautical Twilight 5:09 AM CEST 11:09 PM CEST
Astronomical Twilight 4:12 AM CEST 12:05 AM CEST
Moon 11:57 PM CEST (6/26) 10:09 AM CEST (6/26)
Length of Visible Light 16h 29m
Length of Day
15h 19m
Waning Gibbous, 87% of the Moon is Illuminated
Jun 26
Waning Gibbous
Jun 30
Last Quarter
Jul 8
New
Jul 16
First Quarter
Jul 22
Full

Hourly Weather History & Observations

Time (CEST) Temp. Dew Point Humidity Pressure Visibility Wind Dir Wind Speed Gust Speed Precip Events Conditions
12:00 AM 55.4 °F 50.0 °F 82% 30.36 in 6.2 mi NNW 12.7 mph - N/A   Partly Cloudy
5:30 AM 55.4 °F 50.0 °F 82% 30.30 in 6.2 mi NNW 9.2 mph - N/A   Scattered Clouds
6:00 AM 55.4 °F 50.0 °F 82% 30.30 in 6.2 mi NNW 9.2 mph - N/A   Scattered Clouds
6:30 AM 55.4 °F 50.0 °F 82% 30.30 in 6.2 mi NNW 6.9 mph - N/A   Mostly Cloudy
7:00 AM 55.4 °F 50.0 °F 82% 30.30 in 6.2 mi NW 5.8 mph - N/A   Mostly Cloudy
7:30 AM 57.2 °F 51.8 °F 82% 30.30 in 6.2 mi NW 6.9 mph - N/A   Mostly Cloudy
8:00 AM 57.2 °F 51.8 °F 82% 30.33 in 6.2 mi NW 8.1 mph - N/A   Scattered Clouds
8:30 AM 59.0 °F 51.8 °F 77% 30.33 in 6.2 mi NW 10.4 mph - N/A   Scattered Clouds
9:00 AM 60.8 °F 51.8 °F 72% 30.30 in 6.2 mi NNW 11.5 mph - N/A   Partly Cloudy
9:30 AM 62.6 °F 51.8 °F 68% 30.30 in 6.2 mi NNW 10.4 mph - N/A   Partly Cloudy
10:00 AM 64.4 °F 50.0 °F 59% 30.30 in 6.2 mi NNW 12.7 mph - N/A   Partly Cloudy
10:30 AM 64.4 °F 48.2 °F 56% 30.30 in 6.2 mi North 16.1 mph - N/A   Partly Cloudy
11:00 AM 66.2 °F 48.2 °F 52% 30.30 in 6.2 mi North 16.1 mph - N/A   Partly Cloudy
11:30 AM 66.2 °F 48.2 °F 52% 30.30 in 6.2 mi North 15.0 mph 27.6 mph N/A   Partly Cloudy
12:00 PM 66.2 °F 48.2 °F 52% 30.30 in 6.2 mi North 16.1 mph - N/A   Partly Cloudy
12:30 PM 68.0 °F 46.4 °F 46% 30.30 in 6.2 mi North 18.4 mph - N/A   Partly Cloudy
1:00 PM 68.0 °F 46.4 °F 46% 30.30 in 6.2 mi North 18.4 mph - N/A   Partly Cloudy
1:30 PM 69.8 °F 48.2 °F 46% 30.30 in 6.2 mi North 16.1 mph - N/A   Partly Cloudy
2:00 PM 69.8 °F 50.0 °F 49% 30.30 in 6.2 mi North 16.1 mph - N/A   Partly Cloudy
2:30 PM 69.8 °F 48.2 °F 46% 30.27 in 6.2 mi North 17.3 mph - N/A   Partly Cloudy
3:00 PM 71.6 °F 51.8 °F 50% 30.27 in 6.2 mi North 16.1 mph - N/A   Partly Cloudy
3:30 PM 71.6 °F 50.0 °F 46% 30.27 in - NNE 15.0 mph - N/A   Clear
4:00 PM 71.6 °F 50.0 °F 46% 30.27 in - NNE 13.8 mph - N/A   Clear
4:30 PM 71.6 °F 50.0 °F 46% 30.27 in - NNE 16.1 mph - N/A   Clear
5:00 PM 71.6 °F 50.0 °F 46% 30.27 in - NNW 13.8 mph - N/A   Clear
6:00 PM 69.8 °F 48.2 °F 46% 30.27 in - NNE 17.3 mph - N/A   Clear
6:30 PM 69.8 °F 50.0 °F 49% 30.27 in - NNE 17.3 mph - N/A   Clear
7:00 PM 69.8 °F 50.0 °F 49% 30.27 in - NNE 16.1 mph - N/A   Clear
7:30 PM 68.0 °F 51.8 °F 56% 30.27 in - NNW 13.8 mph - N/A   Clear
8:00 PM 66.2 °F 51.8 °F 60% 30.27 in - NNW 12.7 mph - N/A   Clear
8:30 PM 64.4 °F 51.8 °F 64% 30.27 in - NNW 16.1 mph - N/A   Clear
9:00 PM 62.6 °F 51.8 °F 68% 30.27 in - NNW 17.3 mph - N/A   Clear
9:30 PM 60.8 °F 51.8 °F 72% 30.27 in - NNW 15.0 mph - N/A   Clear
10:00 PM 60.8 °F 50.0 °F 68% 30.27 in 6.2 mi NW 12.7 mph - N/A   Partly Cloudy
10:30 PM 59.0 °F 50.0 °F 72% 30.30 in 6.2 mi NW 11.5 mph - N/A   Partly Cloudy
11:00 PM 59.0 °F 50.0 °F 72% 30.30 in 6.2 mi NW 10.4 mph - N/A   Partly Cloudy
11:30 PM 57.2 °F 50.0 °F 77% 30.30 in 6.2 mi NW 6.9 mph - N/A   Partly Cloudy